GAOFEN-1 03

Last updated on Mon Oct 14 2024 00:02:25 GMT+0000 (Coordinated Universal Time)

1 43260U 18031B 24287.53906153 .00003572 00000+0 51915-3 0 9993 2 43260 97.8077 351.1529 0004508 202.3210 157.7804 14.76542228352438
UTC large
Height (km)
Speed (km/s)
/
Latitude / Longitude
Inclination (degrees)
Orbital Period (minutes)
Azimuth
Elevation
Range (km)
Doppler Factor

Next 0 passes for location: London (51.5072 / 0.1276)

Sorry there are no passes over London.